DAL864 MUHA-TXKF

Flight info

Callsign DAL864
Flight time 2h 33m
Altitude 35000
Route KAVUL6A KAVUL DCT UVA DCT TANIA DCT ZQA DCT GRATX/M079F350 DCT BOREX DCT BALTN POPOP1
Aircraft A321/M-SDE3FGHIRWY/LB1

Departure

Time 2026-05-08 14:33
Airport José Martí International Airport (MUHA)

Arrival

Time 2026-05-08 17:07
Airport L.F. Wade International Airport (TXKF)
Time Latitude Longitude Altitude Speed Heading
2026-05-08 14:02 22.99611 -82.40663 200 ft 0 kts 349°
2026-05-08 14:22 22.99590 -82.40658 200 ft 4 kts 345°
2026-05-08 14:23 22.99564 -82.40650 209 ft 4 kts 338°
2026-05-08 14:23 22.99539 -82.40637 208 ft 4 kts 325°
2026-05-08 14:23 22.99531 -82.40630 209 ft 0 kts 320°
2026-05-08 14:26 22.99531 -82.40633 207 ft 1 kts 296°
2026-05-08 14:27 22.99518 -82.40644 213 ft 5 kts 216°
2026-05-08 14:27 22.99477 -82.40690 207 ft 12 kts 232°
2026-05-08 14:27 22.99416 -82.40780 202 ft 17 kts 234°
2026-05-08 14:27 22.99336 -82.40839 210 ft 12 kts 165°
2026-05-08 14:28 22.99244 -82.40780 199 ft 16 kts 172°
2026-05-08 14:28 22.99150 -82.40877 203 ft 22 kts 233°
2026-05-08 14:28 22.99063 -82.41007 205 ft 21 kts 234°
2026-05-08 14:28 22.98982 -82.41130 211 ft 20 kts 234°
2026-05-08 14:29 22.98906 -82.41246 213 ft 18 kts 234°
2026-05-08 14:29 22.98834 -82.41355 206 ft 17 kts 234°
2026-05-08 14:29 22.98762 -82.41460 212 ft 18 kts 234°
2026-05-08 14:29 22.98688 -82.41572 212 ft 20 kts 234°
2026-05-08 14:30 22.98593 -82.41715 212 ft 26 kts 234°
2026-05-08 14:30 22.98488 -82.41873 205 ft 25 kts 234°
2026-05-08 14:30 22.98388 -82.42025 207 ft 24 kts 234°
2026-05-08 14:30 22.98292 -82.42169 205 ft 23 kts 235°
2026-05-08 14:31 22.98201 -82.42307 198 ft 22 kts 234°
2026-05-08 14:31 22.98114 -82.42437 207 ft 21 kts 234°
2026-05-08 14:31 22.98035 -82.42550 212 ft 13 kts 223°
2026-05-08 14:32 22.97892 -82.42496 208 ft 11 kts 132°
2026-05-08 14:32 22.97905 -82.42432 207 ft 9 kts 55°
2026-05-08 14:32 22.97977 -82.42324 205 ft 42 kts 53°
2026-05-08 14:32 22.98281 -82.41867 205 ft 105 kts 54°
2026-05-08 14:33 22.98805 -82.41078 204 ft 151 kts 54°
2026-05-08 14:33 22.99492 -82.40045 249 ft 182 kts 55°
2026-05-08 14:33 23.00212 -82.38929 801 ft 179 kts 55°
2026-05-08 14:33 23.00934 -82.37815 1349 ft 181 kts 56°
2026-05-08 14:34 23.01671 -82.36707 1915 ft 179 kts 54°
2026-05-08 14:34 23.02335 -82.35590 2402 ft 174 kts 70°
2026-05-08 14:34 23.02616 -82.34316 2812 ft 174 kts 82°
2026-05-08 14:34 23.02767 -82.33006 3195 ft 177 kts 85°
2026-05-08 14:35 23.02904 -82.31668 3532 ft 180 kts 84°
2026-05-08 14:35 23.03054 -82.30305 3890 ft 183 kts 84°
2026-05-08 14:35 23.03213 -82.28925 4245 ft 187 kts 83°
2026-05-08 14:35 23.03387 -82.27496 4561 ft 195 kts 83°
2026-05-08 14:36 23.03576 -82.26016 4938 ft 200 kts 82°
2026-05-08 14:36 23.03776 -82.24511 5333 ft 204 kts 82°
2026-05-08 14:36 23.03991 -82.22974 5764 ft 208 kts 82°
2026-05-08 14:36 23.04217 -82.21421 6205 ft 209 kts 82°
2026-05-08 14:37 23.04454 -82.19861 6627 ft 210 kts 81°
2026-05-08 14:37 23.04700 -82.18296 7021 ft 211 kts 81°
2026-05-08 14:37 23.04954 -82.16730 7435 ft 210 kts 81°
2026-05-08 14:37 23.05217 -82.15170 7830 ft 210 kts 81°
2026-05-08 14:38 23.05445 -82.13602 8219 ft 210 kts 84°
2026-05-08 14:38 23.05570 -82.12025 8613 ft 210 kts 86°
2026-05-08 14:38 23.05595 -82.10440 9007 ft 211 kts 94°
2026-05-08 14:38 23.05490 -82.08834 9346 ft 215 kts 94°
2026-05-08 14:39 23.05417 -82.07193 9645 ft 220 kts 94°
2026-05-08 14:39 23.05343 -82.05510 9885 ft 226 kts 94°
2026-05-08 14:39 23.05260 -82.03793 10138 ft 230 kts 94°
2026-05-08 14:39 23.05182 -82.02028 10302 ft 238 kts 93°
2026-05-08 14:40 23.05114 -82.00200 10429 ft 248 kts 94°
2026-05-08 14:40 23.05017 -81.98251 10449 ft 270 kts 94°
2026-05-08 14:40 23.04946 -81.96872 10530 ft 283 kts 94°
2026-05-08 14:40 23.04838 -81.94672 10661 ft 302 kts 94°
2026-05-08 14:41 23.04726 -81.92329 10776 ft 320 kts 94°
2026-05-08 14:41 23.04609 -81.89851 10897 ft 337 kts 94°
2026-05-08 14:41 23.04488 -81.87257 11141 ft 349 kts 94°
2026-05-08 14:41 23.04366 -81.84607 11591 ft 353 kts 94°
2026-05-08 14:42 23.04244 -81.81929 12076 ft 356 kts 94°
2026-05-08 14:42 23.04118 -81.79232 12554 ft 359 kts 94°
2026-05-08 14:42 23.03990 -81.76511 13033 ft 363 kts 94°
2026-05-08 14:42 23.03860 -81.73767 13510 ft 366 kts 94°
2026-05-08 14:43 23.03728 -81.70999 13961 ft 369 kts 94°
2026-05-08 14:43 23.03594 -81.68208 14371 ft 372 kts 94°
2026-05-08 14:43 23.03458 -81.65393 14797 ft 375 kts 93°
2026-05-08 14:43 23.03321 -81.62561 15228 ft 377 kts 93°
2026-05-08 14:44 23.03182 -81.59713 15680 ft 379 kts 93°
2026-05-08 14:44 23.03041 -81.56845 16093 ft 382 kts 92°
2026-05-08 14:44 23.02897 -81.53953 16505 ft 386 kts 92°
2026-05-08 14:44 23.02750 -81.51036 16912 ft 389 kts 92°
2026-05-08 14:45 23.02703 -81.48093 17309 ft 391 kts 85°
2026-05-08 14:45 23.03141 -81.45175 17705 ft 393 kts 73°
2026-05-08 14:45 23.04089 -81.42395 18098 ft 394 kts 63°
2026-05-08 14:45 23.05434 -81.39789 18482 ft 397 kts 59°
2026-05-08 14:46 23.06822 -81.37192 18819 ft 399 kts 59°
2026-05-08 14:46 23.08220 -81.34571 19154 ft 402 kts 59°
2026-05-08 14:46 23.09644 -81.31892 19489 ft 405 kts 59°
2026-05-08 14:46 23.11036 -81.29264 19807 ft 408 kts 59°
2026-05-08 14:47 23.12455 -81.26583 20135 ft 411 kts 58°
2026-05-08 14:47 23.13886 -81.23880 20468 ft 414 kts 58°
2026-05-08 14:47 23.15325 -81.21164 20794 ft 416 kts 58°
2026-05-08 14:47 23.16775 -81.18423 21115 ft 419 kts 58°
2026-05-08 14:48 23.18233 -81.15667 21441 ft 422 kts 58°
2026-05-08 14:48 23.19704 -81.12888 21726 ft 426 kts 58°
2026-05-08 14:48 23.21186 -81.10086 22036 ft 429 kts 58°
2026-05-08 14:48 23.22695 -81.07227 22358 ft 432 kts 58°
2026-05-08 14:49 23.24173 -81.04422 22662 ft 435 kts 58°
2026-05-08 14:49 23.25682 -81.01562 22964 ft 437 kts 58°
2026-05-08 14:49 23.27224 -80.98647 23285 ft 440 kts 58°
2026-05-08 14:49 23.28755 -80.95755 23590 ft 443 kts 58°
2026-05-08 14:50 23.30274 -80.92882 23850 ft 445 kts 58°
2026-05-08 14:50 23.31838 -80.89912 24127 ft 447 kts 58°
2026-05-08 14:50 23.33366 -80.87009 24410 ft 449 kts 58°
2026-05-08 14:50 23.34938 -80.84016 24695 ft 451 kts 58°
2026-05-08 14:51 23.36498 -80.81048 24973 ft 453 kts 58°
2026-05-08 14:51 23.38064 -80.78066 25245 ft 454 kts 58°
2026-05-08 14:51 23.39632 -80.75074 25517 ft 456 kts 58°
2026-05-08 14:51 23.41204 -80.72067 25791 ft 458 kts 58°
2026-05-08 14:52 23.42786 -80.69045 26062 ft 460 kts 58°
2026-05-08 14:52 23.45949 -80.63007 26592 ft 464 kts 58°
2026-05-08 14:52 23.47551 -80.59950 26849 ft 466 kts 58°
2026-05-08 14:53 23.49166 -80.56871 27083 ft 469 kts 58°
2026-05-08 14:53 23.50786 -80.53781 27341 ft 471 kts 58°
2026-05-08 14:53 23.52412 -80.50674 27607 ft 473 kts 58°
2026-05-08 14:53 23.54042 -80.47553 27867 ft 474 kts 58°
2026-05-08 14:54 23.55698 -80.44380 28127 ft 476 kts 58°
2026-05-08 14:54 23.57337 -80.41236 28373 ft 478 kts 58°
2026-05-08 14:54 23.58980 -80.38081 28609 ft 480 kts 58°
2026-05-08 14:54 23.60627 -80.34911 28842 ft 481 kts 58°
2026-05-08 14:55 23.62278 -80.31731 29071 ft 483 kts 58°
2026-05-08 14:55 23.63936 -80.28535 29295 ft 485 kts 58°
2026-05-08 14:55 23.65603 -80.25327 29528 ft 487 kts 58°
2026-05-08 14:55 23.67279 -80.22113 29756 ft 488 kts 58°
2026-05-08 14:56 23.68959 -80.18889 29981 ft 490 kts 58°
2026-05-08 14:56 23.70639 -80.15655 30241 ft 490 kts 58°
2026-05-08 14:56 23.72317 -80.12419 30542 ft 489 kts 58°
2026-05-08 14:56 23.73988 -80.09193 30838 ft 488 kts 58°
2026-05-08 14:57 23.75653 -80.05968 31115 ft 487 kts 58°
2026-05-08 14:57 23.77316 -80.02748 31365 ft 488 kts 58°
2026-05-08 14:57 23.78980 -79.99523 31656 ft 487 kts 58°
2026-05-08 14:57 23.80644 -79.96304 31934 ft 486 kts 58°
2026-05-08 14:58 23.82306 -79.93092 32227 ft 485 kts 58°
2026-05-08 14:58 23.83963 -79.89886 32528 ft 484 kts 58°
2026-05-08 14:58 23.85618 -79.86686 32828 ft 483 kts 58°
2026-05-08 14:58 23.87270 -79.83490 33128 ft 483 kts 58°
2026-05-08 14:59 23.88915 -79.80296 33422 ft 482 kts 58°
2026-05-08 14:59 23.92184 -79.73932 34052 ft 479 kts 58°
2026-05-08 14:59 23.93810 -79.70756 34314 ft 478 kts 58°
2026-05-08 15:00 23.95436 -79.67585 34552 ft 477 kts 58°
2026-05-08 15:00 23.97059 -79.64428 34785 ft 477 kts 57°
2026-05-08 15:00 23.98687 -79.61264 35002 ft 477 kts 57°
2026-05-08 15:00 24.00287 -79.58149 35075 ft 475 kts 58°
2026-05-08 15:01 24.03520 -79.51826 35091 ft 473 kts 58°
2026-05-08 15:01 24.06652 -79.45491 35084 ft 474 kts 59°
2026-05-08 15:02 24.09723 -79.39108 35085 ft 474 kts 59°
2026-05-08 15:02 24.12796 -79.32738 35085 ft 473 kts 59°
2026-05-08 15:03 24.15868 -79.26420 35084 ft 473 kts 59°
2026-05-08 15:03 24.18973 -79.20059 35087 ft 473 kts 59°
2026-05-08 15:04 24.22073 -79.13692 35092 ft 474 kts 59°
2026-05-08 15:04 24.25181 -79.07277 35090 ft 474 kts 59°
2026-05-08 15:05 24.28237 -79.00937 35092 ft 474 kts 59°
2026-05-08 15:05 24.31324 -78.94558 35096 ft 473 kts 59°
2026-05-08 15:06 24.34402 -78.88184 35097 ft 473 kts 59°
2026-05-08 15:06 24.37475 -78.81805 35098 ft 473 kts 59°
2026-05-08 15:07 24.40546 -78.75418 35095 ft 473 kts 59°
2026-05-08 15:07 24.43614 -78.69030 35097 ft 473 kts 59°
2026-05-08 15:08 24.46177 -78.63681 35099 ft 473 kts 59°
2026-05-08 15:08 24.49738 -78.56262 35099 ft 472 kts 59°
2026-05-08 15:09 24.52798 -78.49873 35099 ft 472 kts 59°
2026-05-08 15:09 24.55847 -78.43488 35100 ft 472 kts 59°
2026-05-08 15:10 24.58895 -78.37102 35094 ft 473 kts 59°
2026-05-08 15:10 24.61944 -78.30693 35090 ft 473 kts 59°
2026-05-08 15:11 24.64998 -78.24281 35083 ft 474 kts 59°
2026-05-08 15:11 24.68051 -78.17868 35082 ft 474 kts 59°
2026-05-08 15:12 24.71102 -78.11440 35086 ft 474 kts 59°
2026-05-08 15:12 24.74148 -78.05015 35087 ft 474 kts 59°
2026-05-08 15:13 24.77192 -77.98581 35084 ft 474 kts 59°
2026-05-08 15:13 24.80255 -77.92101 35087 ft 474 kts 60°
2026-05-08 15:14 24.83288 -77.85665 35100 ft 473 kts 59°
2026-05-08 15:14 24.86324 -77.79222 35088 ft 474 kts 59°
2026-05-08 15:15 24.89366 -77.72773 35085 ft 474 kts 59°
2026-05-08 15:15 24.92404 -77.66320 35099 ft 475 kts 59°
2026-05-08 15:16 24.95437 -77.59856 35108 ft 475 kts 59°
2026-05-08 15:16 24.98468 -77.53390 35114 ft 475 kts 60°
2026-05-08 15:17 25.01490 -77.46927 35118 ft 475 kts 60°
2026-05-08 15:17 25.04946 -77.40769 35115 ft 471 kts 52°
2026-05-08 15:18 25.08641 -77.34792 35116 ft 472 kts 52°
2026-05-08 15:18 25.12330 -77.28803 35102 ft 472 kts 52°
2026-05-08 15:19 25.16019 -77.22807 35090 ft 473 kts 52°
2026-05-08 15:19 25.19092 -77.17820 35085 ft 473 kts 52°
2026-05-08 15:20 25.22789 -77.11815 35075 ft 473 kts 52°
2026-05-08 15:20 25.26484 -77.05799 35083 ft 473 kts 52°
2026-05-08 15:21 25.30173 -76.99776 35082 ft 473 kts 53°
2026-05-08 15:21 25.33856 -76.93753 35084 ft 473 kts 53°
2026-05-08 15:22 25.37537 -76.87722 35092 ft 474 kts 52°
2026-05-08 15:22 25.41230 -76.81671 35085 ft 475 kts 52°
2026-05-08 15:23 25.44924 -76.75614 35082 ft 475 kts 52°
2026-05-08 15:23 25.48616 -76.69550 35083 ft 475 kts 52°
2026-05-08 15:24 25.52308 -76.63479 35083 ft 475 kts 53°
2026-05-08 15:24 25.55995 -76.57407 35082 ft 475 kts 53°
2026-05-08 15:25 25.59684 -76.51330 35085 ft 475 kts 53°
2026-05-08 15:25 25.63367 -76.45253 35095 ft 475 kts 52°
2026-05-08 15:26 25.67024 -76.39203 35084 ft 476 kts 52°
2026-05-08 15:26 25.70732 -76.33063 35077 ft 476 kts 52°
2026-05-08 15:27 25.74391 -76.26991 35078 ft 477 kts 53°
2026-05-08 15:27 25.78078 -76.20862 35081 ft 477 kts 53°
2026-05-08 15:28 25.81764 -76.14739 35083 ft 477 kts 52°
2026-05-08 15:28 25.85460 -76.08614 35086 ft 477 kts 52°
2026-05-08 15:29 25.89142 -76.02486 35098 ft 477 kts 52°
2026-05-08 15:29 25.92823 -75.96341 35091 ft 478 kts 52°
2026-05-08 15:30 25.96505 -75.90193 35085 ft 478 kts 52°
2026-05-08 15:30 26.00190 -75.84039 35082 ft 478 kts 52°
2026-05-08 15:31 26.03868 -75.77875 35086 ft 478 kts 53°
2026-05-08 15:31 26.07543 -75.71705 35095 ft 479 kts 53°
2026-05-08 15:32 26.11218 -75.65526 35089 ft 479 kts 53°
2026-05-08 15:32 26.14890 -75.59346 35112 ft 479 kts 52°
2026-05-08 15:33 26.18564 -75.53153 35097 ft 479 kts 52°
2026-05-08 15:33 26.22236 -75.46954 35094 ft 480 kts 52°
2026-05-08 15:34 26.25914 -75.40749 35086 ft 480 kts 52°
2026-05-08 15:34 26.29587 -75.34543 35092 ft 480 kts 52°
2026-05-08 15:35 26.33257 -75.28331 35093 ft 480 kts 52°
2026-05-08 15:35 26.36927 -75.22114 35096 ft 480 kts 52°
2026-05-08 15:36 26.40592 -75.15895 35102 ft 480 kts 52°
2026-05-08 15:36 26.44259 -75.09668 35100 ft 480 kts 52°
2026-05-08 15:37 26.47917 -75.03430 35094 ft 481 kts 52°
2026-05-08 15:37 26.51578 -74.97177 35094 ft 481 kts 52°
2026-05-08 15:38 26.55241 -74.90933 35099 ft 481 kts 52°
2026-05-08 15:38 26.58899 -74.84678 35097 ft 481 kts 52°
2026-05-08 15:39 26.62558 -74.78413 35093 ft 481 kts 53°
2026-05-08 15:39 26.66208 -74.72145 35116 ft 481 kts 52°
2026-05-08 15:40 26.69864 -74.65873 35099 ft 482 kts 52°
2026-05-08 15:40 26.73526 -74.59592 35099 ft 482 kts 52°
2026-05-08 15:41 26.77184 -74.53305 35101 ft 482 kts 52°
2026-05-08 15:41 26.80832 -74.47004 35090 ft 482 kts 53°
2026-05-08 15:42 26.84475 -74.40693 35094 ft 483 kts 53°
2026-05-08 15:42 26.88122 -74.34375 35106 ft 483 kts 53°
2026-05-08 15:43 26.91773 -74.28069 35091 ft 482 kts 52°
2026-05-08 15:43 26.95505 -74.21827 35106 ft 482 kts 51°
2026-05-08 15:44 26.99296 -74.15637 35103 ft 482 kts 51°
2026-05-08 15:44 27.03060 -74.09479 35094 ft 482 kts 51°
2026-05-08 15:45 27.06820 -74.03255 35094 ft 482 kts 52°
2026-05-08 15:45 27.10557 -73.97016 35104 ft 482 kts 51°
2026-05-08 15:46 27.14306 -73.90783 35117 ft 482 kts 51°
2026-05-08 15:46 27.18061 -73.84539 35099 ft 482 kts 51°
2026-05-08 15:47 27.21804 -73.78282 35099 ft 483 kts 51°
2026-05-08 15:47 27.25548 -73.72015 35099 ft 483 kts 51°
2026-05-08 15:48 27.31165 -73.62611 35103 ft 483 kts 51°
2026-05-08 15:49 27.34914 -73.56338 35104 ft 483 kts 51°
2026-05-08 15:49 27.38685 -73.50026 35113 ft 483 kts 51°
2026-05-08 15:50 27.42424 -73.43740 35105 ft 483 kts 51°
2026-05-08 15:50 27.46137 -73.37481 35102 ft 484 kts 51°
2026-05-08 15:51 27.49900 -73.31139 35102 ft 484 kts 51°
2026-05-08 15:51 27.53609 -73.24868 35102 ft 484 kts 52°
2026-05-08 15:52 27.57342 -73.18557 35102 ft 484 kts 51°
2026-05-08 15:52 27.61073 -73.12251 35102 ft 484 kts 51°
2026-05-08 15:53 27.64799 -73.05925 35109 ft 484 kts 51°
2026-05-08 15:53 27.68525 -72.99585 35101 ft 485 kts 51°
2026-05-08 15:54 27.72253 -72.93244 35098 ft 485 kts 51°
2026-05-08 15:54 27.75988 -72.86897 35099 ft 485 kts 51°
2026-05-08 15:55 27.79718 -72.80542 35099 ft 485 kts 52°
2026-05-08 15:55 27.85303 -72.71003 35108 ft 485 kts 51°
2026-05-08 15:56 27.89020 -72.64635 35094 ft 486 kts 51°
2026-05-08 15:56 27.92742 -72.58250 35094 ft 486 kts 51°
2026-05-08 15:57 27.96459 -72.51864 35099 ft 486 kts 51°
2026-05-08 15:57 28.00173 -72.45476 35097 ft 486 kts 51°
2026-05-08 15:58 28.03889 -72.39085 35097 ft 486 kts 51°
2026-05-08 15:58 28.07594 -72.32688 35094 ft 486 kts 52°
2026-05-08 15:59 28.11301 -72.26285 35097 ft 486 kts 51°
2026-05-08 15:59 28.15012 -72.19867 35088 ft 487 kts 51°
2026-05-08 16:00 28.18722 -72.13438 35084 ft 487 kts 51°
2026-05-08 16:00 28.22427 -72.07008 35086 ft 487 kts 51°
2026-05-08 16:01 28.26134 -72.00575 35087 ft 487 kts 51°
2026-05-08 16:01 28.29839 -71.94131 35086 ft 487 kts 52°
2026-05-08 16:02 28.32910 -71.88766 35094 ft 488 kts 51°
2026-05-08 16:02 28.36607 -71.82304 35087 ft 488 kts 51°
2026-05-08 16:03 28.40309 -71.75850 35084 ft 488 kts 51°
2026-05-08 16:03 28.44010 -71.69390 35085 ft 488 kts 51°
2026-05-08 16:04 28.47703 -71.62916 35083 ft 488 kts 51°
2026-05-08 16:04 28.51388 -71.56436 35084 ft 488 kts 52°
2026-05-08 16:05 28.55073 -71.49948 35099 ft 488 kts 51°
2026-05-08 16:05 28.58762 -71.43455 35082 ft 489 kts 51°
2026-05-08 16:06 28.62457 -71.36950 35082 ft 490 kts 51°
2026-05-08 16:06 28.66149 -71.30435 35080 ft 490 kts 51°
2026-05-08 16:07 28.69841 -71.23902 35084 ft 490 kts 51°
2026-05-08 16:07 28.73523 -71.17364 35077 ft 490 kts 52°
2026-05-08 16:08 28.77202 -71.10822 35091 ft 490 kts 51°
2026-05-08 16:08 28.80885 -71.04273 35080 ft 491 kts 51°
2026-05-08 16:09 28.84568 -70.97721 35075 ft 491 kts 51°
2026-05-08 16:09 28.88262 -70.91175 35069 ft 491 kts 51°
2026-05-08 16:10 28.91987 -70.84647 35070 ft 490 kts 51°
2026-05-08 16:10 28.95708 -70.78125 35072 ft 490 kts 51°
2026-05-08 16:11 28.99415 -70.71592 35090 ft 490 kts 51°
2026-05-08 16:11 29.03116 -70.65044 35064 ft 491 kts 51°
2026-05-08 16:12 29.06822 -70.58483 35059 ft 491 kts 51°
2026-05-08 16:12 29.10526 -70.51912 35053 ft 492 kts 51°
2026-05-08 16:13 29.14230 -70.45342 35067 ft 491 kts 51°
2026-05-08 16:13 29.17936 -70.38770 35069 ft 491 kts 51°
2026-05-08 16:14 29.21629 -70.32176 35066 ft 492 kts 51°
2026-05-08 16:14 29.25295 -70.25618 35068 ft 492 kts 51°
2026-05-08 16:15 29.28987 -70.19025 35068 ft 491 kts 51°
2026-05-08 16:15 29.32675 -70.12441 35070 ft 491 kts 51°
2026-05-08 16:16 29.36349 -70.05864 35068 ft 490 kts 51°
2026-05-08 16:16 29.40020 -69.99277 35065 ft 490 kts 51°
2026-05-08 16:17 29.43062 -69.93805 35071 ft 490 kts 51°
2026-05-08 16:17 29.47340 -69.86083 35054 ft 491 kts 51°
2026-05-08 16:18 29.51000 -69.79464 35061 ft 491 kts 51°
2026-05-08 16:18 29.54664 -69.72851 35053 ft 491 kts 51°
2026-05-08 16:19 29.58323 -69.66232 35061 ft 491 kts 51°
2026-05-08 16:19 29.61982 -69.59611 35060 ft 491 kts 51°
2026-05-08 16:20 29.65634 -69.52979 35075 ft 491 kts 51°
2026-05-08 16:20 29.69283 -69.46342 35062 ft 491 kts 51°
2026-05-08 16:21 29.72931 -69.39713 35058 ft 491 kts 51°
2026-05-08 16:21 29.76573 -69.33068 35055 ft 491 kts 51°
2026-05-08 16:22 29.80204 -69.26418 35053 ft 490 kts 51°
2026-05-08 16:22 29.83838 -69.19767 35081 ft 490 kts 51°
2026-05-08 16:23 29.87473 -69.13117 35064 ft 490 kts 51°
2026-05-08 16:23 29.91102 -69.06470 35061 ft 490 kts 51°
2026-05-08 16:24 29.94727 -68.99802 35055 ft 490 kts 52°
2026-05-08 16:24 29.98340 -68.93129 35047 ft 490 kts 52°
2026-05-08 16:25 30.01951 -68.86458 35042 ft 490 kts 52°
2026-05-08 16:25 30.05561 -68.79784 35050 ft 490 kts 52°
2026-05-08 16:26 30.09149 -68.73139 35045 ft 491 kts 52°
2026-05-08 16:26 30.12755 -68.66440 35043 ft 491 kts 52°
2026-05-08 16:27 30.16367 -68.59743 35042 ft 491 kts 52°
2026-05-08 16:27 30.19976 -68.53038 35044 ft 492 kts 52°
2026-05-08 16:28 30.23571 -68.46313 35041 ft 491 kts 52°
2026-05-08 16:28 30.27169 -68.39590 35054 ft 492 kts 52°
2026-05-08 16:29 30.30776 -68.32852 35047 ft 493 kts 52°
2026-05-08 16:29 30.34385 -68.26094 35044 ft 493 kts 52°
2026-05-08 16:30 30.37984 -68.19332 35045 ft 493 kts 52°
2026-05-08 16:30 30.41583 -68.12566 35033 ft 493 kts 52°
2026-05-08 16:31 30.45173 -68.05793 35048 ft 494 kts 52°
2026-05-08 16:31 30.48766 -67.99005 35030 ft 494 kts 52°
2026-05-08 16:32 30.52371 -67.92214 35025 ft 495 kts 52°
2026-05-08 16:32 30.55966 -67.85416 35022 ft 495 kts 52°
2026-05-08 16:33 30.59558 -67.78597 35021 ft 495 kts 52°
2026-05-08 16:33 30.63144 -67.71758 35023 ft 496 kts 52°
2026-05-08 16:34 30.66739 -67.64921 35032 ft 497 kts 52°
2026-05-08 16:34 30.70649 -67.58372 35026 ft 487 kts 42°
2026-05-08 16:35 30.75086 -67.52410 35014 ft 488 kts 42°
2026-05-08 16:35 30.79522 -67.46450 35027 ft 487 kts 42°
2026-05-08 16:36 30.83946 -67.40483 35065 ft 486 kts 42°
2026-05-08 16:36 30.88363 -67.34511 35027 ft 487 kts 42°
2026-05-08 16:37 30.92794 -67.28525 35018 ft 488 kts 42°
2026-05-08 16:37 30.97221 -67.22531 35010 ft 489 kts 42°
2026-05-08 16:38 31.01649 -67.16520 35010 ft 489 kts 43°
2026-05-08 16:38 31.06040 -67.10533 35035 ft 489 kts 42°
2026-05-08 16:39 31.10463 -67.04507 35022 ft 490 kts 42°
2026-05-08 16:39 31.14896 -66.98461 35017 ft 490 kts 42°
2026-05-08 16:40 31.19333 -66.92394 35019 ft 491 kts 42°
2026-05-08 16:40 31.23768 -66.86330 35020 ft 491 kts 42°
2026-05-08 16:41 31.28209 -66.80264 35030 ft 491 kts 43°
2026-05-08 16:42 31.34836 -66.71146 35029 ft 490 kts 43°
2026-05-08 16:42 31.39257 -66.65070 35024 ft 490 kts 42°
2026-05-08 16:43 31.43677 -66.58999 35021 ft 489 kts 43°
2026-05-08 16:43 31.48083 -66.52924 35033 ft 489 kts 43°
2026-05-08 16:44 31.52484 -66.46827 35025 ft 489 kts 43°
2026-05-08 16:44 31.54681 -66.43781 34870 ft 490 kts 43°
2026-05-08 16:44 31.56884 -66.40730 34633 ft 490 kts 43°
2026-05-08 16:44 31.58343 -66.38712 34483 ft 490 kts 43°
2026-05-08 16:45 31.61292 -66.34631 34111 ft 489 kts 43°
2026-05-08 16:45 31.62747 -66.32611 33647 ft 490 kts 43°
2026-05-08 16:45 31.64944 -66.29555 33008 ft 489 kts 43°
2026-05-08 16:45 31.67134 -66.26500 32380 ft 489 kts 44°
2026-05-08 16:46 31.69323 -66.23447 31803 ft 486 kts 44°
2026-05-08 16:46 31.71497 -66.20416 31227 ft 485 kts 45°
2026-05-08 16:46 31.73665 -66.17389 30662 ft 483 kts 45°
2026-05-08 16:46 31.75823 -66.14371 30088 ft 481 kts 45°
2026-05-08 16:47 31.77969 -66.11367 29478 ft 478 kts 45°
2026-05-08 16:47 31.80096 -66.08382 28936 ft 474 kts 45°
2026-05-08 16:47 31.82203 -66.05419 28391 ft 470 kts 45°
2026-05-08 16:47 31.84292 -66.02478 27850 ft 466 kts 45°
2026-05-08 16:48 31.86367 -65.99565 27330 ft 463 kts 45°
2026-05-08 16:48 31.88434 -65.96670 26800 ft 460 kts 45°
2026-05-08 16:48 31.90484 -65.93797 26286 ft 457 kts 45°
2026-05-08 16:48 31.92519 -65.90941 25790 ft 453 kts 45°
2026-05-08 16:49 31.94530 -65.88111 25299 ft 449 kts 45°
2026-05-08 16:49 31.96524 -65.85300 24824 ft 445 kts 45°
2026-05-08 16:49 31.98502 -65.82515 24354 ft 442 kts 45°
2026-05-08 16:49 32.00464 -65.79753 23889 ft 438 kts 45°
2026-05-08 16:50 32.02412 -65.77006 23398 ft 435 kts 45°
2026-05-08 16:50 32.04344 -65.74277 22910 ft 430 kts 45°
2026-05-08 16:50 32.06246 -65.71586 22462 ft 426 kts 44°
2026-05-08 16:50 32.08130 -65.68918 22006 ft 421 kts 44°
2026-05-08 16:51 32.09945 -65.66218 21540 ft 421 kts 51°
2026-05-08 16:51 32.11362 -65.63187 21092 ft 424 kts 63°
2026-05-08 16:51 32.12273 -65.59877 20616 ft 426 kts 75°
2026-05-08 16:51 32.12698 -65.56427 20145 ft 425 kts 82°
2026-05-08 16:52 32.13032 -65.52977 19663 ft 423 kts 81°
2026-05-08 16:52 32.13369 -65.49535 19190 ft 421 kts 81°
2026-05-08 16:52 32.13708 -65.46107 18711 ft 420 kts 81°
2026-05-08 16:52 32.14043 -65.42688 18226 ft 419 kts 81°
2026-05-08 16:53 32.14699 -65.35891 17257 ft 414 kts 82°
2026-05-08 16:53 32.15019 -65.32528 16797 ft 411 kts 82°
2026-05-08 16:53 32.15337 -65.29188 16333 ft 408 kts 82°
2026-05-08 16:54 32.15656 -65.25876 15885 ft 405 kts 82°
2026-05-08 16:54 32.15974 -65.22578 15436 ft 403 kts 82°
2026-05-08 16:54 32.16287 -65.19302 14991 ft 401 kts 82°
2026-05-08 16:54 32.16596 -65.16038 14541 ft 399 kts 82°
2026-05-08 16:55 32.16905 -65.12792 14093 ft 398 kts 82°
2026-05-08 16:55 32.17216 -65.09548 13622 ft 397 kts 83°
2026-05-08 16:55 32.17524 -65.06315 13143 ft 395 kts 83°
2026-05-08 16:55 32.17827 -65.03106 12689 ft 392 kts 83°
2026-05-08 16:56 32.18126 -64.99914 12233 ft 390 kts 83°
2026-05-08 16:56 32.18422 -64.96747 11761 ft 388 kts 83°
2026-05-08 16:56 32.18715 -64.93596 11310 ft 385 kts 83°
2026-05-08 16:56 32.19003 -64.90487 11118 ft 374 kts 83°
2026-05-08 16:57 32.19279 -64.87488 10993 ft 362 kts 83°
2026-05-08 16:57 32.19547 -64.84579 10841 ft 352 kts 83°
2026-05-08 16:57 32.19810 -64.81731 10491 ft 346 kts 83°
2026-05-08 16:57 32.20069 -64.78928 9946 ft 342 kts 83°
2026-05-08 16:58 32.20325 -64.76192 9537 ft 327 kts 83°
2026-05-08 16:58 32.20568 -64.73566 8911 ft 318 kts 84°
2026-05-08 16:58 32.20805 -64.70990 8244 ft 313 kts 84°
2026-05-08 16:58 32.21034 -64.68469 7654 ft 305 kts 84°
2026-05-08 16:59 32.21253 -64.66038 7248 ft 291 kts 84°
2026-05-08 16:59 32.21465 -64.63710 6835 ft 280 kts 84°
2026-05-08 16:59 32.21668 -64.61465 6443 ft 271 kts 84°
2026-05-08 16:59 32.21868 -64.59241 6061 ft 273 kts 84°
2026-05-08 17:00 32.22069 -64.56989 5603 ft 278 kts 84°
2026-05-08 17:00 32.22273 -64.54701 5228 ft 279 kts 85°
2026-05-08 17:00 32.22472 -64.52508 5127 ft 256 kts 85°
2026-05-08 17:00 32.22891 -64.50528 5063 ft 245 kts 62°
2026-05-08 17:01 32.23889 -64.48939 4982 ft 239 kts 38°
2026-05-08 17:01 32.25290 -64.47946 4636 ft 232 kts 12°
2026-05-08 17:01 32.26841 -64.47538 4313 ft 227 kts
2026-05-08 17:01 32.28381 -64.47178 4018 ft 225 kts
2026-05-08 17:02 32.29913 -64.46813 3707 ft 224 kts
2026-05-08 17:02 32.31411 -64.46734 3406 ft 208 kts 338°
2026-05-08 17:02 32.32583 -64.47551 3148 ft 189 kts 306°
2026-05-08 17:02 32.33135 -64.48831 2915 ft 165 kts 280°
2026-05-08 17:03 32.33348 -64.50094 2712 ft 150 kts 279°
2026-05-08 17:03 32.33551 -64.51274 2530 ft 144 kts 279°
2026-05-08 17:03 32.33747 -64.52418 2346 ft 140 kts 279°
2026-05-08 17:03 32.33940 -64.53544 2164 ft 139 kts 279°
2026-05-08 17:04 32.34132 -64.54667 1982 ft 139 kts 278°
2026-05-08 17:04 32.34323 -64.55783 1820 ft 138 kts 279°
2026-05-08 17:04 32.34513 -64.56889 1631 ft 137 kts 278°
2026-05-08 17:04 32.34704 -64.58001 1422 ft 141 kts 277°
2026-05-08 17:05 32.34896 -64.59123 1236 ft 138 kts 277°
2026-05-08 17:05 32.35089 -64.60238 1047 ft 136 kts 278°
2026-05-08 17:05 32.35280 -64.61347 867 ft 137 kts 279°
2026-05-08 17:05 32.35475 -64.62453 644 ft 139 kts 278°
2026-05-08 17:06 32.35681 -64.63546 465 ft 134 kts 277°
2026-05-08 17:06 32.35863 -64.64629 302 ft 134 kts 275°
2026-05-08 17:06 32.36033 -64.65697 136 ft 134 kts 276°
2026-05-08 17:06 32.36218 -64.66767 10 ft 126 kts 276°
2026-05-08 17:07 32.36348 -64.67566 5 ft 69 kts 281°
2026-05-08 17:07 32.36422 -64.67994 5 ft 46 kts 281°
2026-05-08 17:07 32.36483 -64.68335 7 ft 39 kts 282°
2026-05-08 17:07 32.36536 -64.68634 6 ft 35 kts 282°
2026-05-08 17:08 32.36581 -64.68902 5 ft 32 kts 280°
2026-05-08 17:08 32.36617 -64.69145 4 ft 24 kts 268°
2026-05-08 17:08 32.36563 -64.69323 4 ft 23 kts 246°
2026-05-08 17:08 32.36499 -64.69498 4 ft 23 kts 248°
2026-05-08 17:09 32.36439 -64.69677 4 ft 24 kts 247°
2026-05-08 17:09 32.36375 -64.69856 4 ft 24 kts 247°
2026-05-08 17:09 32.36310 -64.70038 6 ft 24 kts 247°
2026-05-08 17:09 32.36250 -64.70205 4 ft 14 kts 246°
2026-05-08 17:10 32.36223 -64.70280 4 ft 7 kts 247°
2026-05-08 17:10 32.36214 -64.70306 6 ft 1 kts 246°
2026-05-08 17:10 32.36213 -64.70308 6 ft 0 kts 246°